[Date Prev][Date Next][Thread Prev][Thread Next] - [Date Index][Thread Index][Author Index]

2 Line ISS Keps 5-14



ISS
1 25544U 98067A   04135.46622203  .00011102  00000-0  97280-4 0  7744
2 25544  51.6268 137.5793 0010993 132.8544  24.2047 15.69394070313026


----
Via the sarex mailing list at AMSAT.ORG courtesy of AMSAT-NA.
To unsubscribe, send "unsubscribe sarex" to Majordomo@amsat.org



AMSAT Top AMSAT Home